User: anonymous   Login
Location: Unspecified
(0.0000°N, 0.0000°E)
Time: 13:12:36
(UTC+00:00)
Language:

WGS F3 (USA 211) - Orbit

View from above orbital plane
View from above orbital plane
View from above satellite
View from above satellite

Ground track
Ground track

The orbit data is extracted from the following two-line orbital elements,

1 36108U 09068A   17002.49140868 0.00000000  00000-0  00000-0 0    04
2 36108   0.0097 267.1305 0005459  18.1148 341.9300  1.00270000    06
Epoch (UTC): 02 January 2017 11:47:37
Eccentricity: 0.0005459
inclination: 0.0097°
perigee height: 35764 km
apogee height: 35810 km
right ascension of ascending node: 267.1305°
argument of perigee: 18.1148°
revolutions per day: 1.00270000
mean anomaly at epoch: 341.9300°
orbit number at epoch: 0

The dashed part of the orbit path shows where the satellite is in the earth's shadow,  

DLR